Crosby, ND

10:15 AM CDT on September 21, 2017 (GMT -0500)
Crosby

Weather History for KD50 - August, 2013

Change the Weather History Date:

Saturday, August 3, 2013

  Actual Average (KISN) Record (KISN)
Temperature  
Mean Temperature 62 °F -  
Max Temperature 73 °F 82 °F 106 °F (1983)
Min Temperature 51 °F 54 °F 37 °F (1978)
Degree Days  
Heating Degree Days 3    
Growing Degree Days 12 (Base 50)    
Moisture  
Dew Point 55 °F    
Average Humidity 77    
Maximum Humidity 100    
Minimum Humidity 49    
Precipitation  
Precipitation 0.02 in - - ()
Sea Level Pressure  
Sea Level Pressure 30.18 in    
Wind  
Wind Speed 6 mph (ESE)    
Max Wind Speed 15 mph    
Max Gust Speed 22 mph    
Visibility 10 miles    
Events      
Averages and records for this station are not official NWS values.
T = Trace of Precipitation, MM = Missing Value Source: NWS Daily Summary

Daily Weather History Graph

Daily Weather History Graph

Search for Another Location

Airport or City:

Trip Planner

Search our weather history database for the weather conditions in past years. The results will help you decide how hot, cold, wet, or windy it might be!

Date:

Astronomy

Aug. 03, 2013 Rise Set
Actual Time 6:29 AM CDT 9:28 PM CDT
Civil Twilight 5:52 AM CDT 10:05 PM CDT
Nautical Twilight 5:04 AM CDT 10:52 PM CDT
Astronomical Twilight 4:05 AM CDT 11:51 PM CDT
Moon 3:37 AM CDT (8/3) 7:14 PM CDT (8/3)
Length of Visible Light 16h 12m
Length of Day
14h 58m
Waning Crescent, 9% of the Moon is Illuminated
Aug 3
Waning Crescent
Aug 6
New
Aug 14
First Quarter
Aug 20
Full
Aug 28
Last Quarter

Hourly Weather History & Observations

Time (CDT) Temp. Dew Point Humidity Pressure Visibility Wind Dir Wind Speed Gust Speed Precip Events Conditions
12:15 AM 57.2 °F 55.4 °F 94% 30.16 in 10.0 mi ESE 5.8 mph - N/A   Overcast
12:35 AM 57.2 °F 55.4 °F 94% 30.16 in 10.0 mi NE 5.8 mph - N/A   Overcast
12:55 AM 57.2 °F 55.4 °F 94% 30.17 in 10.0 mi Calm Calm - N/A   Overcast
1:15 AM 57.2 °F 55.4 °F 94% 30.18 in 10.0 mi Calm Calm - N/A   Overcast
1:35 AM 57.2 °F 55.4 °F 94% 30.17 in 10.0 mi East 4.6 mph - N/A   Overcast
1:55 AM 55.4 °F 55.4 °F 100% 30.17 in 10.0 mi ESE 5.8 mph - N/A   Overcast
2:15 AM 57.2 °F 57.2 °F 100% 30.18 in 10.0 mi Calm Calm - N/A   Overcast
2:35 AM 55.4 °F 55.4 °F 100% 30.18 in 10.0 mi Calm Calm - N/A   Mostly Cloudy
2:55 AM 55.4 °F 55.4 °F 100% 30.17 in 10.0 mi NNE 4.6 mph - N/A   Partly Cloudy
3:15 AM 55.4 °F 55.4 °F 100% 30.17 in 10.0 mi NE 3.5 mph - N/A   Partly Cloudy
3:35 AM 55.4 °F 55.4 °F 100% 30.18 in 10.0 mi Calm Calm - N/A   Mostly Cloudy
3:55 AM 55.4 °F 55.4 °F 100% 30.18 in 10.0 mi East 3.5 mph - N/A   Mostly Cloudy
4:15 AM 53.6 °F 53.6 °F 100% 30.17 in 10.0 mi ENE 4.6 mph - N/A   Overcast
4:35 AM 53.6 °F 53.6 °F 100% 30.17 in 10.0 mi Calm Calm - N/A   Overcast
4:55 AM 53.6 °F 53.6 °F 100% 30.18 in 10.0 mi ENE 3.5 mph - N/A   Overcast
5:15 AM 53.6 °F 53.6 °F 100% 30.18 in 10.0 mi Calm Calm - N/A   Overcast
5:35 AM 53.6 °F 53.6 °F 100% 30.18 in 10.0 mi Calm Calm - N/A   Overcast
5:55 AM 53.6 °F 53.6 °F 100% 30.19 in 10.0 mi ENE 5.8 mph - N/A   Overcast
6:15 AM 53.6 °F 53.6 °F 100% 30.19 in 10.0 mi East 4.6 mph - N/A   Overcast
6:35 AM 51.8 °F 51.8 °F 100% 30.19 in 10.0 mi Calm Calm - N/A   Mostly Cloudy
6:55 AM 53.6 °F 53.6 °F 100% 30.20 in 10.0 mi Calm Calm - N/A   Overcast
7:15 AM 53.6 °F 53.6 °F 100% 30.20 in 10.0 mi ENE 5.8 mph - N/A   Scattered Clouds
7:35 AM 53.6 °F 53.6 °F 100% 30.20 in 10.0 mi East 4.6 mph - N/A   Clear
7:55 AM 53.6 °F 53.6 °F 100% 30.21 in 10.0 mi East 3.5 mph - N/A   Clear
8:15 AM 55.4 °F 55.4 °F 100% 30.22 in 10.0 mi East 3.5 mph - N/A   Clear
8:35 AM 57.2 °F 57.2 °F 100% 30.22 in 10.0 mi ESE 4.6 mph - N/A   Clear
8:55 AM 59.0 °F 57.2 °F 94% 30.22 in 10.0 mi ESE 4.6 mph - N/A   Clear
9:15 AM 60.8 °F 57.2 °F 88% 30.22 in 10.0 mi ESE 4.6 mph - N/A   Clear
9:35 AM 62.6 °F 57.2 °F 82% 30.22 in 10.0 mi ESE 4.6 mph - N/A   Clear
9:55 AM 62.6 °F 57.2 °F 82% 30.22 in 10.0 mi East 6.9 mph - N/A   Clear
10:15 AM 64.4 °F 57.2 °F 77% 30.22 in 10.0 mi ESE 5.8 mph - N/A   Clear
10:35 AM 66.2 °F 55.4 °F 68% 30.22 in 10.0 mi East 8.1 mph - N/A   Clear
10:55 AM 68.0 °F 53.6 °F 60% 30.22 in 10.0 mi East 13.8 mph - N/A   Clear
11:15 AM 68.0 °F 51.8 °F 56% 30.22 in 10.0 mi ESE 11.5 mph 17.3 mph N/A   Clear
11:35 AM 68.0 °F 50.0 °F 52% 30.22 in 10.0 mi ESE 11.5 mph 18.4 mph N/A   Clear
11:55 AM 68.0 °F 50.0 °F 52% 30.22 in 10.0 mi ESE 12.7 mph 18.4 mph N/A   Partly Cloudy
12:15 PM 69.8 °F 50.0 °F 49% 30.22 in 10.0 mi ESE 10.4 mph 18.4 mph N/A   Partly Cloudy
12:35 PM 69.8 °F 50.0 °F 49% 30.22 in 10.0 mi SE 12.7 mph - N/A   Mostly Cloudy
12:55 PM 68.0 °F 50.0 °F 52% 30.22 in 10.0 mi ESE 12.7 mph - N/A   Scattered Clouds
1:15 PM 68.0 °F 50.0 °F 52% 30.22 in 10.0 mi ESE 10.4 mph - N/A   Overcast
1:35 PM 69.8 °F 51.8 °F 53% 30.21 in 10.0 mi East 11.5 mph 16.1 mph N/A   Overcast
1:55 PM 71.6 °F 51.8 °F 50% 30.21 in 10.0 mi SE 11.5 mph 18.4 mph N/A   Mostly Cloudy
2:15 PM 71.6 °F 51.8 °F 50% 30.21 in 10.0 mi East 11.5 mph - N/A   Scattered Clouds
2:35 PM 69.8 °F 53.6 °F 56% 30.20 in 10.0 mi ESE 10.4 mph - N/A   Scattered Clouds
2:55 PM 69.8 °F 53.6 °F 56% 30.20 in 10.0 mi East 10.4 mph - N/A   Mostly Cloudy
3:15 PM 71.6 °F 51.8 °F 50% 30.20 in 10.0 mi ESE 12.7 mph 21.9 mph N/A   Mostly Cloudy
3:35 PM 71.6 °F 53.6 °F 53% 30.20 in 10.0 mi ESE 13.8 mph - N/A   Mostly Cloudy
3:55 PM 71.6 °F 53.6 °F 53% 30.19 in 10.0 mi ESE 15.0 mph 19.6 mph N/A   Mostly Cloudy
4:15 PM 71.6 °F 53.6 °F 53% 30.19 in 10.0 mi ESE 11.5 mph - N/A   Mostly Cloudy
4:35 PM 71.6 °F 53.6 °F 53% 30.19 in 10.0 mi East 11.5 mph 16.1 mph N/A   Mostly Cloudy
4:55 PM 71.6 °F 53.6 °F 53% 30.18 in 10.0 mi ESE 12.7 mph 17.3 mph N/A   Partly Cloudy
5:15 PM 71.6 °F 55.4 °F 57% 30.18 in 10.0 mi ESE 13.8 mph - N/A   Scattered Clouds
5:35 PM 69.8 °F 53.6 °F 56% 30.17 in 10.0 mi ESE 10.4 mph - N/A   Scattered Clouds
5:55 PM 71.6 °F 53.6 °F 53% 30.17 in 10.0 mi ESE 15.0 mph - N/A   Scattered Clouds
6:15 PM 73.4 °F 55.4 °F 53% 30.17 in 10.0 mi ESE 15.0 mph 19.6 mph N/A   Mostly Cloudy
6:35 PM 71.6 °F 55.4 °F 57% 30.17 in 10.0 mi ESE 12.7 mph 16.1 mph N/A   Overcast
6:55 PM 71.6 °F 55.4 °F 57% 30.16 in 10.0 mi East 11.5 mph - N/A   Mostly Cloudy
7:15 PM 68.0 °F 55.4 °F 64% 30.15 in 10.0 mi ESE 10.4 mph - N/A   Partly Cloudy
7:35 PM 68.0 °F 55.4 °F 64% 30.15 in 10.0 mi ESE 9.2 mph - N/A   Partly Cloudy
7:55 PM 68.0 °F 55.4 °F 64% 30.13 in 10.0 mi ESE 10.4 mph - N/A   Partly Cloudy
8:15 PM 66.2 °F 55.4 °F 68% 30.13 in 10.0 mi ESE 9.2 mph - N/A   Clear
8:35 PM 66.2 °F 57.2 °F 73% 30.13 in 10.0 mi ESE 8.1 mph - N/A   Clear
8:55 PM 64.4 °F 57.2 °F 77% 30.13 in 10.0 mi ESE 8.1 mph - N/A   Clear
9:15 PM 64.4 °F 57.2 °F 77% 30.13 in 10.0 mi ESE 6.9 mph - N/A   Clear
9:35 PM 62.6 °F 57.2 °F 82% 30.13 in 10.0 mi ESE 6.9 mph - N/A   Clear
9:55 PM 62.6 °F 59.0 °F 88% 30.14 in 10.0 mi ESE 6.9 mph - N/A   Partly Cloudy
10:15 PM 62.6 °F 59.0 °F 88% 30.15 in 10.0 mi SE 5.8 mph - N/A   Mostly Cloudy
10:35 PM 62.6 °F 59.0 °F 88% 30.14 in 10.0 mi East 6.9 mph - N/A   Mostly Cloudy
10:55 PM 62.6 °F 59.0 °F 88% 30.15 in 10.0 mi ESE 6.9 mph - N/A   Mostly Cloudy
11:15 PM 62.6 °F 59.0 °F 88% 30.15 in 10.0 mi ESE 8.1 mph - N/A   Mostly Cloudy
11:35 PM 64.4 °F 55.4 °F 73% 30.15 in 10.0 mi SE 12.7 mph - N/A   Overcast
11:55 PM 59.0 °F 59.0 °F 100% 30.14 in 7.0 mi ESE 12.7 mph 18.4 mph 0.02 in   Overcast